User: anonymous   Login
Location: Igri�s
(42.2144°N, 0.4320°W)
Time: 10:21:46
(UTC+00:00)
Language:

CARTOSAT-1 - Orbit

View from above orbital plane
View from above orbital plane
View from above satellite
View from above satellite

Ground track
Ground track

The orbit data is extracted from the following two-line orbital elements,

1 28649U 05017A   20304.79060673  .00000093  00000-0  17542-4 0  9994
2 28649  97.7993  10.6997 0001948  47.9724 312.1656 14.83720371838573
Epoch (UTC): 30 October 2020 18:58:28
Eccentricity: 0.0001948
inclination: 97.7993°
perigee height: 616 km
apogee height: 619 km
right ascension of ascending node: 10.6997°
argument of perigee: 47.9724°
revolutions per day: 14.83720371
mean anomaly at epoch: 312.1656°
orbit number at epoch: 83857

The dashed part of the orbit path shows where the satellite is in the earth's shadow,  

DLR